{"data":{"norad_id":66998,"intl_designator":"2025-292F","name":"2025-292F","alt_names":[],"object_type":"PAYLOAD","status":"ACTIVE","operator":null,"country":"PRC","launch_date":"2025-12-10","launch_site_code":"JSC","launch_vehicle":null,"mission":null,"orbit_class":"UNKNOWN","rcs_meters":null,"size_class":null,"mass_kg":null,"dimensions":null,"purposes":[],"wikipedia_slug":null,"has_3d_model":false,"image_url":null,"decayed_at":null,"tle_current":{"epoch":"2026-05-25T03:24:53.905248Z","epoch_age_seconds":63579,"freshness":"FRESH","line1":"1 66998U 25292F   26145.14229057  .00004419  00000+0  30225-3 0  9998","line2":"2 66998  97.6358 221.2639 0016518  84.3274 275.9836 15.06526956 24980","mean_motion":15.06526956,"eccentricity":0.0016518,"inclination_deg":97.6358,"raan_deg":221.2639,"arg_perigee_deg":84.3274,"mean_anomaly_deg":275.9836,"bstar":0.00030225,"rev_number":2498,"period_min":95.584084590386,"perigee_km":535.38383533374,"apogee_km":558.26113148313,"semimajor_km":6924.9594834084,"source":"CELESTRAK","updated_at":"2026-05-25T13:38:06.638986Z"}}}